QPF
0.08 0.06 0.07 0.07 0.06 0.07 0.07 0.08 0.07 0.06 0.07 0.07 0.07 0.07 0.07 0.08 0.09 0.10 0.11 0.12 0.13 0.12 0.09 0.09 0.09 0.08 0.06 0.05 0.05 0.04 0.03 0.02 0.02 0.02 0.02 0.04 0.06 0.08 0.06 0.08 0.09 0.07 0.05
0.05 0.04 0.04 0.06 0.05 0.05 0.06 0.07 0.07 0.06 0.07 0.07 0.07 0.07 0.07 0.08 0.09 0.11 0.12 0.13 0.12 0.12 0.11 0.10 0.07 0.06 0.05 0.06 0.05 0.05 0.03 0.02 0.02 0.03 0.03 0.03 0.05 0.07 0.06 0.08 0.10 0.06 0.06
0.03 0.02 0.02 0.04 0.04 0.06 0.06 0.07 0.06 0.06 0.07 0.07 0.07 0.08 0.08 0.08 0.09 0.11 0.12 0.11 0.13 0.14 0.11 0.07 0.05 0.04 0.04 0.04 0.05 0.06 0.04 0.04 0.07 0.08 0.09 0.06 0.04 0.05 0.05 0.05 0.04 0.04 0.06
0.02 0.02 0.02 0.03 0.03 0.05 0.07 0.09 0.08 0.07 0.06 0.06 0.08 0.09 0.09 0.10 0.11 0.11 0.10 0.11 0.12 0.11 0.09 0.05 0.04 0.03 0.04 0.04 0.04 0.04 0.03 0.05 0.08 0.12 0.13 0.08 0.04 0.03 0.05 0.02 0.02 0.03 0.04
0.01 0.01 0.01 0.01 0.02 0.03 0.05 0.09 0.13 0.10 0.07 0.07 0.08 0.08 0.09 0.11 0.11 0.10 0.09 0.11 0.10 0.10 0.08 0.05 0.03 0.03 0.03 0.02 0.03 0.03 0.03 0.04 0.10 0.13 0.10 0.07 0.04 0.03 0.04 0.03 0.03 0.03 0.03
0.01 0.01 0.01 0.01 0.01 0.02 0.03 0.08 0.12 0.11 0.10 0.10 0.09 0.09 0.12 0.14 0.13 0.13 0.10 0.10 0.09 0.08 0.07 0.05 0.03 0.02 0.02 0.02 0.03 0.03 0.04 0.06 0.10 0.10 0.08 0.07 0.04 0.02 0.03 0.04 0.04 0.05 0.04
0.01 0.01 0.00 0.00 0.01 0.01 0.03 0.11 0.20 0.18 0.14 0.12 0.11 0.14 0.18 0.15 0.13 0.14 0.12 0.09 0.08 0.08 0.06 0.04 0.02 0.02 0.02 0.03 0.03 0.04 0.05 0.08 0.08 0.07 0.09 0.06 0.03 0.02 0.03 0.03 0.04 0.04 0.04
0.00 0.00 0.01 0.00 0.01 0.01 0.02 0.07 0.12 0.12 0.12 0.14 0.17 0.17 0.15 0.11 0.10 0.11 0.09 0.07 0.07 0.06 0.06 0.04 0.02 0.01 0.01 0.02 0.02 0.02 0.03 0.04 0.03 0.03 0.03 0.03 0.02 0.02 0.02 0.03 0.05 0.04 0.03
0.00 0.00 0.01 0.01 0.01 0.00 0.01 0.03 0.05 0.07 0.10 0.14 0.14 0.12 0.09 0.07 0.06 0.06 0.05 0.06 0.05 0.04 0.04 0.03 0.02 0.01 0.01 0.01 0.01 0.01 0.01 0.03 0.02 0.02 0.01 0.01 0.01 0.02 0.02 0.02 0.04 0.03 0.02
0.01 0.01 0.01 0.01 0.02 0.02 0.01 0.01 0.02 0.03 0.05 0.07 0.08 0.08 0.08 0.06 0.05 0.05 0.06 0.06 0.04 0.03 0.03 0.04 0.03 0.01 0.01 0.01 0.01 0.01 0.01 0.01 0.01 0.01 0.02 0.00 0.01 0.02 0.02 0.02 0.04 0.04 0.02
0.02 0.01 0.01 0.00 0.02 0.02 0.01 0.01 0.01 0.01 0.02 0.04 0.05 0.06 0.13 0.16 0.09 0.08 0.06 0.06 0.06 0.04 0.03 0.03 0.03 0.01 0.01 0.01 0.01 0.00 0.00 0.01 0.01 0.01 0.01 0.01 0.01 0.01 0.02 0.03 0.04 0.05 0.03
0.01 0.01 0.01 0.01 0.01 0.02 0.02 0.02 0.07 0.05 0.05 0.07 0.09 0.11 0.17 0.18 0.16 0.07 0.05 0.05 0.04 0.03 0.03 0.02 0.02 0.02 0.02 0.02 0.01 0.01 0.01 0.00 0.02 0.01 0.01 0.01 0.00 0.01 0.01 0.02 0.03 0.03 0.02
0.01 0.01 0.01 0.02 0.01 0.02 0.04 0.03 0.06 0.08 0.10 0.08 0.08 0.08 0.10 0.09 0.07 0.05 0.04 0.04 0.03 0.03 0.04 0.03 0.03 0.04 0.04 0.02 0.01 0.01 0.01 0.01 0.02 0.01 0.01 0.01 0.00 0.01 0.01 0.01 0.01 0.02 0.03
0.01 0.01 0.01 0.01 0.02 0.02 0.02 0.03 0.03 0.04 0.06 0.06 0.06 0.05 0.06 0.09 0.08 0.07 0.07 0.06 0.05 0.05 0.06 0.06 0.06 0.04 0.02 0.00 0.00 0.00 0.00 0.00 0.01 0.01 0.01 0.01 0.00 0.01 0.01 0.02 0.01 0.02 0.02
0.01 0.01 0.01 0.01 0.01 0.02 0.02 0.03 0.03 0.03 0.03 0.03 0.04 0.04 0.04 0.06 0.08 0.08 0.08 0.07 0.04 0.03 0.04 0.03 0.03 0.03 0.02 0.02 0.01 0.01 0.01 0.01 0.01 0.02 0.02 0.01 0.01 0.01 0.01 0.02 0.02 0.01 0.01
0.01 0.01 0.01 0.01 0.01 0.02 0.02 0.02 0.02 0.01 0.02 0.01 0.02 0.03 0.03 0.05 0.07 0.07 0.07 0.06 0.03 0.03 0.04 0.02 0.02 0.04 0.03 0.02 0.02 0.01 0.02 0.02 0.01 0.01 0.02 0.01 0.01 0.01 0.02 0.03 0.02 0.02 0.01
0.01 0.01 0.01 0.01 0.01 0.01 0.01 0.01 0.01 0.01 0.00 0.01 0.02 0.02 0.02 0.03 0.04 0.05 0.04 0.05 0.04 0.03 0.02 0.02 0.03 0.03 0.03 0.03 0.03 0.02 0.03 0.04 0.03 0.02 0.03 0.03 0.02 0.01 0.01 0.02 0.02 0.01 0.01
0.01 0.01 0.01 0.01 0.02 0.01 0.01 0.01 0.01 0.01 0.00 0.00 0.01 0.02 0.02 0.03 0.03 0.05 0.05 0.03 0.02 0.02 0.02 0.03 0.04 0.04 0.04 0.04 0.03 0.03 0.02 0.04 0.03 0.03 0.03 0.04 0.05 0.03 0.01 0.01 0.01 0.01 0.01
0.01 0.01 0.02 0.02 0.02 0.02 0.02 0.02 0.02 0.01 0.01 0.01 0.01 0.03 0.03 0.02 0.02 0.03 0.05 0.05 0.03 0.03 0.03 0.03 0.05 0.04 0.05 0.05 0.03 0.03 0.02 0.03 0.03 0.03 0.03 0.03 0.04 0.03 0.04 0.02 0.01 0.01 0.00
0.01 0.01 0.01 0.01 0.03 0.03 0.04 0.04 0.03 0.02 0.01 0.01 0.02 0.03 0.02 0.02 0.01 0.03 0.04 0.04 0.04 0.06 0.07 0.06 0.07 0.05 0.04 0.05 0.03 0.03 0.02 0.03 0.03 0.03 0.02 0.03 0.02 0.02 0.04 0.02 0.01 0.01 0.00
0.01 0.01 0.01 0.02 0.03 0.04 0.05 0.04 0.04 0.03 0.02 0.02 0.02 0.02 0.02 0.01 0.02 0.03 0.05 0.05 0.05 0.09 0.11 0.07 0.06 0.08 0.06 0.04 0.07 0.07 0.05 0.03 0.04 0.02 0.02 0.03 0.02 0.02 0.03 0.03 0.03 0.04 0.01
0.01 0.01 0.02 0.02 0.02 0.03 0.04 0.04 0.04 0.04 0.02 0.03 0.04 0.03 0.02 0.01 0.01 0.03 0.06 0.05 0.07 0.09 0.10 0.10 0.10 0.10 0.08 0.05 0.08 0.13 0.15 0.13 0.08 0.02 0.03 0.03 0.03 0.02 0.03 0.04 0.04 0.06 0.04
0.01 0.01 0.01 0.01 0.01 0.01 0.02 0.02 0.04 0.04 0.03 0.03 0.03 0.03 0.03 0.02 0.02 0.03 0.04 0.06 0.07 0.07 0.10 0.08 0.09 0.11 0.10 0.08 0.07 0.10 0.16 0.19 0.15 0.09 0.05 0.03 0.02 0.03 0.03 0.04 0.03 0.04 0.04
0.01 0.01 0.01 0.01 0.01 0.01 0.01 0.02 0.02 0.03 0.04 0.04 0.05 0.05 0.05 0.04 0.04 0.03 0.03 0.05 0.06 0.07 0.09 0.06 0.08 0.08 0.07 0.08 0.09 0.08 0.08 0.12 0.15 0.16 0.11 0.06 0.04 0.02 0.02 0.02 0.02 0.03 0.03
0.00 0.01 0.01 0.01 0.01 0.02 0.02 0.03 0.04 0.03 0.05 0.05 0.05 0.06 0.06 0.06 0.04 0.02 0.03 0.04 0.04 0.06 0.07 0.08 0.10 0.08 0.08 0.08 0.09 0.09 0.10 0.11 0.10 0.12 0.13 0.10 0.08 0.03 0.02 0.01 0.02 0.02 0.02
0.00 0.01 0.01 0.01 0.01 0.02 0.02 0.03 0.04 0.05 0.07 0.09 0.10 0.09 0.07 0.06 0.05 0.04 0.03 0.04 0.04 0.05 0.06 0.07 0.08 0.09 0.10 0.10 0.10 0.08 0.10 0.10 0.11 0.14 0.12 0.11 0.09 0.04 0.02 0.01 0.02 0.02 0.02
MSLP
1010.58 1010.59 1010.64 1010.74 1010.90 1011.06 1011.20 1011.28 1011.27 1011.20 1011.09 1011.00 1010.96 1011.01 1011.15 1011.37 1011.61 1011.86 1012.06 1012.22 1012.32 1012.40 1012.49 1012.59 1012.74 1012.93 1013.14 1013.36 1013.55 1013.73 1013.89 1014.05 1014.24 1014.48 1014.78 1015.13 1015.51 1015.90 1016.26 1016.57 1016.83 1017.03 1017.22
1010.70 1010.83 1010.98 1011.17 1011.36 1011.53 1011.65 1011.68 1011.65 1011.56 1011.46 1011.40 1011.41 1011.52 1011.70 1011.94 1012.18 1012.40 1012.57 1012.67 1012.74 1012.80 1012.87 1012.98 1013.12 1013.30 1013.49 1013.67 1013.82 1013.94 1014.05 1014.18 1014.37 1014.63 1014.97 1015.38 1015.82 1016.26 1016.67 1017.01 1017.29 1017.50 1017.68
1010.77 1011.00 1011.25 1011.51 1011.75 1011.94 1012.06 1012.09 1012.04 1011.96 1011.89 1011.86 1011.92 1012.06 1012.26 1012.48 1012.70 1012.87 1012.98 1013.03 1013.07 1013.10 1013.17 1013.29 1013.45 1013.63 1013.80 1013.95 1014.06 1014.13 1014.21 1014.32 1014.51 1014.79 1015.17 1015.63 1016.13 1016.62 1017.07 1017.44 1017.74 1017.96 1018.13
1010.78 1011.09 1011.43 1011.77 1012.07 1012.31 1012.45 1012.50 1012.48 1012.43 1012.39 1012.40 1012.48 1012.63 1012.82 1013.01 1013.18 1013.28 1013.33 1013.33 1013.33 1013.36 1013.44 1013.58 1013.76 1013.95 1014.11 1014.23 1014.31 1014.35 1014.39 1014.49 1014.68 1014.99 1015.41 1015.91 1016.45 1016.98 1017.45 1017.84 1018.14 1018.37 1018.55
1010.74 1011.12 1011.53 1011.95 1012.33 1012.63 1012.83 1012.93 1012.96 1012.94 1012.94 1012.98 1013.08 1013.22 1013.38 1013.52 1013.62 1013.66 1013.65 1013.62 1013.60 1013.64 1013.74 1013.89 1014.09 1014.29 1014.45 1014.55 1014.59 1014.60 1014.63 1014.72 1014.92 1015.25 1015.69 1016.22 1016.78 1017.32 1017.79 1018.17 1018.47 1018.70 1018.88
1010.67 1011.10 1011.58 1012.08 1012.54 1012.91 1013.18 1013.34 1013.42 1013.46 1013.49 1013.55 1013.65 1013.78 1013.91 1014.00 1014.05 1014.04 1013.99 1013.93 1013.92 1013.96 1014.08 1014.27 1014.48 1014.67 1014.82 1014.89 1014.91 1014.90 1014.91 1015.01 1015.22 1015.56 1016.02 1016.56 1017.12 1017.64 1018.08 1018.44 1018.71 1018.93 1019.11
1010.62 1011.08 1011.61 1012.17 1012.69 1013.14 1013.47 1013.69 1013.82 1013.90 1013.96 1014.04 1014.15 1014.26 1014.37 1014.44 1014.45 1014.41 1014.35 1014.30 1014.29 1014.36 1014.50 1014.69 1014.90 1015.08 1015.20 1015.25 1015.24 1015.22 1015.23 1015.33 1015.55 1015.91 1016.39 1016.92 1017.45 1017.93 1018.33 1018.64 1018.87 1019.06 1019.24
1010.59 1011.06 1011.62 1012.22 1012.80 1013.29 1013.68 1013.94 1014.11 1014.22 1014.31 1014.41 1014.52 1014.64 1014.74 1014.81 1014.82 1014.79 1014.74 1014.70 1014.72 1014.80 1014.94 1015.13 1015.32 1015.48 1015.56 1015.58 1015.55 1015.51 1015.53 1015.65 1015.90 1016.28 1016.75 1017.27 1017.77 1018.21 1018.55 1018.80 1018.98 1019.13 1019.29
1010.62 1011.09 1011.65 1012.26 1012.85 1013.37 1013.77 1014.06 1014.26 1014.39 1014.50 1014.62 1014.75 1014.89 1015.02 1015.11 1015.15 1015.15 1015.13 1015.12 1015.15 1015.24 1015.38 1015.54 1015.69 1015.81 1015.85 1015.84 1015.79 1015.76 1015.79 1015.94 1016.22 1016.62 1017.11 1017.62 1018.09 1018.47 1018.75 1018.94 1019.06 1019.18 1019.32
1010.70 1011.14 1011.69 1012.28 1012.86 1013.37 1013.77 1014.06 1014.26 1014.41 1014.54 1014.69 1014.85 1015.03 1015.20 1015.33 1015.42 1015.47 1015.49 1015.51 1015.55 1015.63 1015.74 1015.87 1015.97 1016.03 1016.04 1016.00 1015.94 1015.92 1015.99 1016.17 1016.49 1016.93 1017.43 1017.93 1018.38 1018.73 1018.97 1019.10 1019.18 1019.26 1019.38
1010.82 1011.23 1011.73 1012.29 1012.83 1013.30 1013.68 1013.95 1014.15 1014.31 1014.47 1014.65 1014.86 1015.08 1015.30 1015.49 1015.63 1015.72 1015.78 1015.82 1015.86 1015.92 1016.00 1016.08 1016.13 1016.15 1016.13 1016.07 1016.02 1016.03 1016.13 1016.36 1016.72 1017.19 1017.71 1018.21 1018.65 1018.98 1019.19 1019.31 1019.36 1019.41 1019.51
1010.95 1011.32 1011.78 1012.28 1012.77 1013.19 1013.53 1013.79 1013.98 1014.15 1014.33 1014.54 1014.80 1015.07 1015.35 1015.59 1015.78 1015.91 1015.99 1016.03 1016.07 1016.10 1016.14 1016.18 1016.20 1016.18 1016.14 1016.10 1016.07 1016.11 1016.26 1016.52 1016.92 1017.41 1017.94 1018.45 1018.89 1019.22 1019.43 1019.54 1019.59 1019.64 1019.72
1011.06 1011.40 1011.81 1012.26 1012.69 1013.06 1013.36 1013.60 1013.79 1013.97 1014.18 1014.43 1014.72 1015.04 1015.36 1015.64 1015.86 1016.01 1016.10 1016.14 1016.17 1016.18 1016.19 1016.20 1016.20 1016.18 1016.15 1016.13 1016.14 1016.22 1016.40 1016.69 1017.10 1017.59 1018.12 1018.64 1019.08 1019.42 1019.64 1019.77 1019.85 1019.90 1020.00
1011.13 1011.44 1011.82 1012.22 1012.60 1012.93 1013.20 1013.42 1013.62 1013.81 1014.04 1014.32 1014.65 1014.99 1015.33 1015.63 1015.87 1016.03 1016.13 1016.17 1016.18 1016.18 1016.18 1016.19 1016.20 1016.21 1016.21 1016.23 1016.28 1016.39 1016.59 1016.89 1017.29 1017.76 1018.27 1018.76 1019.20 1019.55 1019.80 1019.97 1020.08 1020.17 1020.28
1011.14 1011.45 1011.80 1012.16 1012.51 1012.82 1013.07 1013.29 1013.49 1013.70 1013.95 1014.25 1014.58 1014.94 1015.29 1015.60 1015.83 1016.00 1016.09 1016.13 1016.15 1016.16 1016.18 1016.21 1016.26 1016.31 1016.37 1016.44 1016.53 1016.67 1016.87 1017.15 1017.50 1017.92 1018.37 1018.82 1019.24 1019.59 1019.86 1020.07 1020.23 1020.37 1020.50
1011.10 1011.42 1011.76 1012.11 1012.43 1012.73 1012.98 1013.20 1013.41 1013.63 1013.89 1014.20 1014.54 1014.89 1015.23 1015.52 1015.76 1015.92 1016.02 1016.08 1016.12 1016.16 1016.22 1016.31 1016.41 1016.53 1016.65 1016.77 1016.89 1017.04 1017.23 1017.46 1017.74 1018.08 1018.45 1018.83 1019.19 1019.53 1019.82 1020.06 1020.27 1020.45 1020.63
1011.03 1011.36 1011.71 1012.05 1012.37 1012.67 1012.92 1013.15 1013.38 1013.61 1013.87 1014.17 1014.49 1014.83 1015.15 1015.43 1015.66 1015.83 1015.95 1016.04 1016.13 1016.22 1016.34 1016.49 1016.66 1016.84 1017.02 1017.18 1017.34 1017.48 1017.63 1017.80 1018.00 1018.23 1018.50 1018.79 1019.09 1019.39 1019.67 1019.94 1020.19 1020.41 1020.63
1010.93 1011.29 1011.65 1012.00 1012.33 1012.63 1012.90 1013.14 1013.38 1013.62 1013.87 1014.15 1014.45 1014.76 1015.06 1015.33 1015.56 1015.76 1015.91 1016.05 1016.19 1016.35 1016.53 1016.75 1016.98 1017.21 1017.43 1017.63 1017.80 1017.93 1018.04 1018.15 1018.26 1018.39 1018.55 1018.74 1018.96 1019.20 1019.46 1019.73 1020.00 1020.26 1020.51
1010.81 1011.20 1011.58 1011.94 1012.29 1012.60 1012.89 1013.15 1013.40 1013.64 1013.88 1014.14 1014.41 1014.69 1014.97 1015.23 1015.48 1015.70 1015.91 1016.11 1016.31 1016.53 1016.77 1017.03 1017.31 1017.58 1017.83 1018.04 1018.21 1018.33 1018.41 1018.46 1018.50 1018.55 1018.61 1018.71 1018.85 1019.03 1019.25 1019.50 1019.77 1020.04 1020.32
1010.64 1011.07 1011.48 1011.86 1012.23 1012.57 1012.88 1013.16 1013.42 1013.66 1013.89 1014.12 1014.36 1014.61 1014.87 1015.14 1015.41 1015.67 1015.93 1016.19 1016.45 1016.72 1017.01 1017.30 1017.59 1017.87 1018.13 1018.35 1018.52 1018.64 1018.70 1018.73 1018.72 1018.71 1018.71 1018.74 1018.80 1018.92 1019.08 1019.29 1019.54 1019.81 1020.09
1010.39 1010.86 1011.30 1011.72 1012.11 1012.49 1012.83 1013.13 1013.41 1013.65 1013.86 1014.08 1014.29 1014.52 1014.77 1015.03 1015.32 1015.63 1015.94 1016.25 1016.56 1016.87 1017.18 1017.48 1017.77 1018.05 1018.30 1018.52 1018.69 1018.82 1018.90 1018.92 1018.92 1018.89 1018.85 1018.83 1018.83 1018.89 1018.99 1019.14 1019.35 1019.60 1019.87
1010.01 1010.53 1011.01 1011.46 1011.90 1012.31 1012.69 1013.04 1013.33 1013.58 1013.79 1013.99 1014.18 1014.38 1014.62 1014.89 1015.19 1015.53 1015.88 1016.23 1016.58 1016.92 1017.23 1017.53 1017.81 1018.07 1018.31 1018.53 1018.72 1018.87 1018.99 1019.05 1019.08 1019.06 1019.02 1018.98 1018.95 1018.94 1018.98 1019.08 1019.23 1019.43 1019.68
1009.46 1010.02 1010.54 1011.05 1011.54 1012.01 1012.44 1012.83 1013.16 1013.42 1013.64 1013.82 1013.99 1014.17 1014.39 1014.66 1014.97 1015.33 1015.71 1016.09 1016.46 1016.81 1017.13 1017.42 1017.69 1017.94 1018.17 1018.40 1018.62 1018.82 1018.99 1019.11 1019.20 1019.22 1019.21 1019.17 1019.11 1019.06 1019.04 1019.07 1019.16 1019.31 1019.52
1008.71 1009.32 1009.90 1010.46 1011.01 1011.54 1012.04 1012.48 1012.85 1013.14 1013.37 1013.54 1013.70 1013.86 1014.06 1014.31 1014.62 1014.99 1015.38 1015.79 1016.18 1016.54 1016.86 1017.16 1017.42 1017.67 1017.92 1018.17 1018.43 1018.68 1018.92 1019.12 1019.27 1019.35 1019.37 1019.34 1019.28 1019.19 1019.12 1019.09 1019.12 1019.21 1019.37
1007.81 1008.46 1009.09 1009.71 1010.33 1010.92 1011.48 1011.98 1012.40 1012.73 1012.97 1013.15 1013.29 1013.43 1013.61 1013.84 1014.14 1014.50 1014.90 1015.32 1015.73 1016.11 1016.46 1016.76 1017.05 1017.32 1017.59 1017.89 1018.19 1018.50 1018.80 1019.07 1019.28 1019.42 1019.48 1019.47 1019.40 1019.29 1019.18 1019.10 1019.07 1019.11 1019.23
1006.83 1007.52 1008.19 1008.87 1009.54 1010.19 1010.81 1011.37 1011.83 1012.20 1012.46 1012.64 1012.78 1012.91 1013.06 1013.27 1013.55 1013.90 1014.30 1014.73 1015.16 1015.57 1015.95 1016.29 1016.61 1016.93 1017.24 1017.58 1017.93 1018.29 1018.64 1018.96 1019.22 1019.40 1019.49 1019.50 1019.43 1019.32 1019.19 1019.07 1019.00 1019.00 1019.08
Thickness
5791 5789 5787 5786 5786 5786 5786 5785 5785 5783 5782 5781 5780 5779 5778 5777 5775 5774 5772 5771 5770 5769 5768 5767 5766 5765 5764 5763 5762 5761 5759 5758 5757 5755 5753 5751 5750 5748 5746 5745 5744 5741 5739
5795 5789 5786 5786 5785 5785 5784 5783 5782 5781 5780 5779 5778 5776 5775 5775 5773 5772 5770 5769 5768 5766 5765 5765 5764 5763 5762 5761 5760 5759 5757 5756 5755 5753 5751 5749 5747 5746 5744 5743 5742 5739 5737
5796 5790 5786 5785 5784 5783 5782 5781 5780 5779 5778 5777 5776 5774 5773 5772 5771 5769 5768 5767 5765 5764 5763 5762 5761 5760 5759 5759 5758 5757 5756 5755 5754 5752 5750 5747 5745 5743 5742 5741 5739 5737 5736
5797 5791 5786 5783 5782 5781 5780 5779 5778 5777 5776 5775 5774 5772 5771 5770 5768 5767 5766 5765 5763 5762 5761 5760 5760 5759 5758 5757 5756 5756 5755 5754 5753 5751 5749 5747 5744 5741 5740 5739 5737 5735 5734
5798 5790 5784 5783 5781 5780 5779 5778 5776 5775 5774 5773 5772 5770 5769 5768 5766 5765 5764 5763 5762 5760 5759 5759 5758 5757 5756 5755 5755 5755 5754 5753 5752 5751 5748 5744 5742 5739 5738 5737 5735 5734 5732
5798 5790 5784 5782 5780 5779 5778 5777 5775 5774 5773 5771 5770 5769 5768 5766 5765 5764 5762 5761 5760 5759 5758 5757 5756 5756 5755 5755 5754 5754 5753 5753 5752 5750 5747 5743 5740 5738 5736 5735 5733 5732 5730
5798 5790 5783 5780 5779 5778 5777 5775 5774 5773 5771 5770 5769 5767 5766 5765 5763 5762 5761 5760 5758 5758 5757 5756 5755 5754 5754 5753 5753 5753 5753 5753 5752 5749 5745 5741 5738 5736 5735 5733 5732 5730 5729
5799 5790 5783 5779 5778 5776 5775 5773 5772 5771 5770 5768 5768 5767 5765 5763 5762 5761 5760 5759 5757 5756 5756 5755 5754 5753 5753 5752 5752 5752 5753 5753 5752 5749 5744 5739 5736 5735 5733 5732 5730 5729 5728
5801 5792 5785 5780 5777 5775 5773 5772 5771 5770 5769 5767 5766 5765 5764 5762 5761 5760 5759 5758 5757 5756 5755 5754 5753 5752 5752 5752 5752 5752 5752 5752 5751 5748 5743 5738 5735 5733 5732 5730 5729 5728 5727
5801 5795 5790 5784 5779 5776 5773 5771 5769 5768 5767 5766 5765 5764 5763 5762 5760 5759 5758 5757 5756 5755 5754 5753 5752 5752 5752 5752 5752 5752 5753 5752 5751 5747 5741 5737 5734 5732 5730 5729 5727 5726 5725
5798 5797 5793 5788 5783 5780 5776 5772 5769 5767 5766 5765 5764 5763 5762 5762 5761 5759 5757 5756 5755 5754 5753 5753 5752 5752 5752 5752 5752 5753 5753 5753 5750 5745 5740 5736 5734 5732 5730 5728 5726 5725 5724
5795 5796 5796 5791 5788 5784 5780 5774 5771 5770 5767 5766 5765 5763 5762 5762 5762 5760 5757 5756 5755 5754 5753 5753 5752 5752 5752 5753 5753 5753 5753 5753 5750 5744 5739 5736 5734 5732 5729 5728 5726 5724 5723
5798 5797 5796 5793 5791 5788 5783 5777 5775 5772 5769 5768 5767 5766 5764 5763 5762 5760 5758 5756 5755 5754 5754 5754 5753 5754 5755 5755 5755 5755 5754 5752 5750 5744 5738 5736 5734 5732 5730 5728 5726 5724 5722
5800 5798 5797 5793 5790 5788 5785 5782 5778 5775 5772 5770 5768 5767 5766 5764 5764 5762 5761 5759 5758 5757 5757 5756 5757 5757 5757 5757 5756 5756 5755 5753 5749 5743 5738 5736 5734 5732 5730 5728 5726 5724 5723
5800 5798 5796 5793 5790 5787 5785 5783 5781 5778 5775 5772 5770 5768 5767 5765 5764 5763 5761 5761 5760 5759 5758 5758 5758 5757 5757 5757 5756 5756 5754 5752 5750 5745 5739 5737 5735 5733 5731 5729 5727 5725 5723
5802 5799 5797 5793 5789 5786 5783 5781 5781 5779 5775 5774 5771 5768 5767 5766 5764 5762 5761 5761 5760 5760 5759 5758 5757 5757 5756 5756 5755 5755 5754 5752 5750 5746 5741 5738 5736 5734 5732 5730 5728 5727 5725
5805 5802 5797 5793 5790 5785 5783 5781 5781 5779 5777 5774 5771 5768 5766 5765 5764 5762 5761 5760 5760 5759 5759 5758 5757 5756 5756 5756 5755 5754 5753 5752 5750 5747 5744 5740 5737 5735 5733 5732 5730 5728 5726
5808 5802 5799 5797 5791 5786 5784 5781 5781 5780 5778 5775 5772 5769 5767 5765 5763 5762 5761 5761 5760 5760 5759 5758 5757 5755 5755 5754 5753 5754 5753 5751 5750 5749 5747 5744 5741 5738 5735 5733 5731 5729 5727
5810 5804 5799 5797 5792 5787 5784 5782 5781 5780 5778 5776 5773 5770 5767 5765 5764 5762 5761 5760 5760 5759 5759 5758 5756 5755 5753 5753 5753 5753 5753 5752 5751 5751 5749 5747 5744 5742 5739 5735 5733 5731 5729
5812 5806 5800 5797 5793 5789 5785 5781 5780 5779 5778 5776 5774 5771 5768 5766 5764 5763 5761 5760 5760 5759 5757 5756 5754 5754 5753 5753 5754 5754 5754 5753 5752 5752 5751 5750 5748 5745 5742 5739 5735 5733 5731
5812 5806 5801 5796 5793 5789 5784 5780 5777 5775 5776 5776 5774 5771 5769 5767 5765 5763 5762 5761 5759 5758 5756 5756 5754 5752 5752 5754 5750 5748 5751 5754 5754 5753 5753 5752 5751 5749 5746 5743 5739 5737 5734
5813 5807 5802 5798 5794 5790 5787 5784 5781 5779 5778 5777 5775 5772 5770 5768 5766 5765 5762 5761 5760 5757 5756 5755 5754 5751 5751 5753 5748 5742 5739 5743 5750 5756 5754 5753 5752 5751 5748 5746 5744 5741 5739
5815 5810 5806 5801 5797 5793 5790 5786 5784 5780 5778 5776 5773 5771 5770 5768 5766 5765 5763 5762 5760 5758 5756 5755 5754 5751 5748 5751 5752 5745 5736 5733 5741 5749 5754 5754 5753 5752 5751 5749 5747 5744 5742
5820 5815 5810 5805 5799 5795 5793 5788 5783 5777 5774 5774 5774 5772 5771 5769 5767 5766 5764 5763 5761 5760 5758 5756 5755 5753 5750 5748 5750 5751 5748 5746 5738 5737 5746 5751 5753 5751 5751 5751 5750 5747 5745
5826 5820 5814 5807 5802 5798 5794 5790 5785 5782 5780 5779 5776 5773 5770 5769 5768 5766 5765 5763 5761 5760 5758 5757 5755 5754 5752 5749 5748 5749 5748 5747 5746 5738 5735 5742 5747 5751 5752 5751 5750 5749 5747
5829 5823 5817 5809 5803 5800 5795 5792 5787 5783 5781 5777 5774 5772 5770 5769 5768 5767 5766 5764 5761 5760 5758 5757 5755 5753 5752 5751 5750 5750 5747 5744 5743 5741 5737 5739 5741 5748 5752 5753 5752 5751 5750